Regional Weather Roundup
Issued by NWS

Home | Current Version | Previous Version | Text Only | Print | Product List | Glossary Off
Versions: 1 2 3 4 5 6 7 8 9 10 11 12 13 14 15 16 17 18 19 20 21 22 23 24 25 26 27 28 29 30 31 32 33 34 35 36 37 38 39 40 41 42 43 44 45 46 47 48 49 50

000
ASUS43 KOAX 190810
RWRNE

WEATHER ROUNDUP FOR NEBRASKA
NATIONAL WEATHER SERVICE OMAHA NE
300 AM CDT THU OCT 19 2017

NOTES: SATELLITE DATA IS BEING USED TO AUGMENT CLOUD COVER ABOVE
       12000 FEET.
       "FAIR" INDICATES FEW OR NO CLOUDS BELOW 12,000 FEET WITH NO
       SIGNIFICANT WEATHER AND/OR OBSTRUCTIONS TO VISIBILITY.


NEZ001>004-019>022-054>056-190900-
NEBRASKA PANHANDLE

CITY           SKY/WX    TMP DP  RH WIND       PRES   REMARKS
SCOTTSBLUFF    CLOUDY    43  31  62 E8        30.07F
ALLIANCE       CLOUDY    39  31  72 S6        30.07S WCI  35
CHADRON        CLOUDY    58  29  33 SW14      29.98F
GORDON         FAIR      48  34  57 W3        30.03S
KIMBALL        CLOUDY    42  29  59 SW5       30.11F
SIDNEY         CLOUDY    36  29  75 SW9       30.11S WCI  29
$$

NEZ057>060-069>072-079>082-190900-
SOUTHWEST NEBRASKA

CITY           SKY/WX    TMP DP  RH WIND       PRES   REMARKS
NORTH PLATTE   CLOUDY    36  34  92 CALM      30.09S
IMPERIAL       CLOUDY    42  33  70 W3        30.10S
LEXINGTON      CLOUDY    37  33  86 W3        30.08F
MCCOOK         CLOUDY    40  34  79 NW3       30.09S
OGALLALA       CLOUDY    38  32  80 CALM      30.10S
$$

NEZ005>010-023>029-035>040-094-190900-
NORTH CENTRAL NEBRASKA

CITY           SKY/WX    TMP DP  RH WIND       PRES   REMARKS
VALENTINE      CLOUDY    49  35  58 S8        30.01F
AINSWORTH      CLOUDY    42  36  78 S8        30.03F
BROKEN BOW     CLEAR     35  33  92 CALM      30.07S
O`NEILL        CLOUDY    45  36  71 CALM      30.07S
ORD            CLOUDY    37  32  82 CALM      30.06S
THEDFORD       CLOUDY    48  35  61 S10       30.07S
$$

NEZ041-046>049-061>064-073>077-083>087-190900-
SOUTH CENTRAL NEBRASKA

CITY           SKY/WX    TMP DP  RH WIND       PRES   REMARKS
GRAND ISLAND   CLOUDY    42  39  89 W3        30.05F
AURORA         CLOUDY    45  37  73 CALM      30.05F
HASTINGS       CLEAR     43  36  76 CALM      30.06F
HEBRON         CLEAR     44  41  88 CALM      30.04F
HOLDREGE       CLOUDY    42  36  81 CALM      30.07F
KEARNEY        CLOUDY    44  36  73 NW3       30.07F
YORK           CLEAR     43  39  87 CALM      30.05F
$$

NEZ011>018-030>034-042>045-190900-
NORTHEAST NEBRASKA

CITY           SKY/WX    TMP DP  RH WIND       PRES   REMARKS
NORFOLK        CLOUDY    41  36  82 CALM      30.05S
ALBION         CLOUDY    37  35  91 N3        30.06R
BLAIR          CLEAR     51  45  79 NE7       30.05R
COLUMBUS       CLOUDY    38  35  89 NW3       30.06S
FREMONT        CLOUDY    45  41  86 CALM      30.05S
TEKAMAH        CLOUDY    42  39  89 NW5       30.06R
WAYNE          CLOUDY    36  34  91 CALM      30.07R
$$

NEZ050>053-065>068-078-088>093-190900-
SOUTHEAST NEBRASKA

CITY           SKY/WX    TMP DP  RH WIND       PRES   REMARKS
LINCOLN        CLEAR     47  42  83 N5        30.06S
OMAHA EPPLEY   PTCLDY    47  42  83 N3        30.05R
BEATRICE       CLEAR     46  44  92 CALM      30.03F
FALLS CITY     CLEAR     46  45  96 CALM      30.04S
NEBRASKA CITY  CLEAR     53  51  94 S3        30.04S
PLATTSMOUTH    CLEAR     53  50  89 SE3       30.04F
$$

NEZ044-045-051>053-067-190900-
OMAHA AREA

CITY           SKY/WX    TMP DP  RH WIND       PRES   REMARKS
OMAHA EPPLEY   PTCLDY    47  42  83 N3        30.05R
BLAIR          CLEAR     51  45  79 NE7       30.05R
FREMONT        CLOUDY    45  41  86 CALM      30.05S
MILLARD        CLEAR     49  48  95 CALM      30.04S
OFFUTT AFB     CLEAR     43  43 100 CALM      30.04R FOG
PLATTSMOUTH    CLEAR     53  50  89 SE3       30.04F
WAHOO          FAIR      46  41  84 NW3       30.05R
$$



USA.gov is the U.S. government's official web portal to all federal, state and local government web resources and services.